Location: Votelez
(50.0000°N, 15.0000°E)
Time: 10:13:30
(UTC+01:00)

ISS - Pass Details

Date: 18 February 2026
Orbit: 416 x 426 km, 51.6° (Epoch: 9 March)

Event Time Altitude Azimuth Distance (km) Brightness Sun altitude
Exits shadow 06:27:49 - 264° (W) 1,657 -1.4 -6.7°
Reaches altitude 10° 06:28:13 10° 264° (W) 1,494 -1.6 -6.6°
Maximum altitude 06:31:34 73° 350° (N) 440 -3.7 -6.1°
Drops below altitude 10° 06:34:55 10° 75° (ENE) 1,494 0.3 -5.6°
Sets 06:37:01 0° 78° (ENE) 2,357 1.5 -5.2°
